Weather in Tobermory

Canada     45°15′22″N   81°40′01″W
temp.,
°C
wind,
m/s
gust,
m/s
humid.,
%
clouds,
%
prec.,
mm/h
press.,
hPa
HPBL,
m
2 march, tue
tue201:00−9nw11146710 0.0 10261153
04:00−9nnw8106928 0.0 1028770
07:00−10n228249 0.1 1027210
10:00−5wsw886776 0.1 1025953
13:00−3sw10117482 0.1 1021906
16:00−1ssw151874100 0.0 10151024
19:00+1sw152068100 0.0 1011975
22:00+2wsw12177096 0.0 1009628
3 march, wed
wed301:00+2w11168797 0.0 1008487
04:00+1wnw81397100 0.1 1008344
07:00+1w81098100 0.2 1009238
10:00+1wnw81197100 0.1 1010254
13:00+1nw7994100 0.2 1012257
16:000nnw5790100 0.2 1013317
19:000n6879100 0.3 1017690
22:00−2n997696 0.1 1019911
4 march, thu
thu401:00−4nne787895 0.1 1021741
04:00−5nne6681100 0.1 1023664
07:00−7nne7779100 0.1 1025594
10:00−8nne776959 0.0 1026563
13:00−8n556129 0.0 1026532
16:00−5nnw56530 0.0 1025897
19:00−4nnw89600 0.0 1026992
22:00−5n89630 0.0 1026757
5 march, fri
fri501:00−7n89680 0.0 1026619
04:00−7nnw79680 0.0 1026622
07:00−7nnw810670 0.0 1026618
10:00−6nw89750 0.0 1025614
13:00−5nw910782 0.0 1024637
16:00−2wnw1012793 0.0 1023807
19:00−1nw10117951 0.0 1023919
22:00−2nnw897699 0.0 1024923
6 march, sat
sat601:00−2nw8875100 0.1 1024897
04:00−3nnw777895 0.0 1024721
07:00−3nw677498 0.1 1024832
10:00−3nw6776100 0.0 1024740
13:00−3wnw4586100 0.1 1023375
16:00−1wnw797843 0.0 1021896
19:000wnw9128470 0.1 1022665
22:00−2nne778631 0.1 1024574